Location: Zagreb
(45.8000°N, 16.0000°E)
Time: 02:46:32
(UTC+01:00)

Courier 1B - Pass Details

Date: 09 October 2020
Orbit: 963 x 1209 km, 28.3° (Epoch: 25 October)

Event Time Altitude Azimuth Distance (km) Brightness Sun altitude
Rises 20:36:17 0° 234° (SW) 3,984 11.2 -24.3°
Reaches altitude 10° 20:39:52 10° 219° (SW) 3,062 10.3 -24.9°
Maximum altitude 20:45:05 20° 175° (S) 2,428 9.3 -25.8°
Enters shadow 20:45:25 20° 172° (S) 2,432 9.3 -25.8°
